Weather History for Jamestown, ND

Change the Weather History Date:

Sunday, July 14, 2013

  Actual Average Record
Temperature  
Mean Temperature 71 °F 70 °F  
Max Temperature 77 °F 82 °F 102 °F (1901)
Min Temperature 65 °F 58 °F 38 °F (1930)
Degree Days  
Heating Degree Days 0 1  
Month to date heating degree days 0 14  
Since 1 June heating degree days 85 111  
Since 1 July heating degree days 0 14  
Cooling Degree Days 6 6  
Month to date cooling degree days 110 73  
Year to date cooling degree days 221 173  
Since 1 June cooling degree days 210 153  
Growing Degree Days 20 (Base 50)    
Moisture  
Dew Point 65 °F    
Average Humidity 79    
Maximum Humidity 100    
Minimum Humidity 58    
Precipitation  
Precipitation 0.03 in 0.12 in 1.93 in (1959)
Month to date precipitation 0.20 1.70  
Year to date precipitation 7.55 10.44  
Sea Level Pressure  
Sea Level Pressure 30.09 in    
Wind  
Wind Speed 8 mph (NNE)    
Max Wind Speed 18 mph    
Max Gust Speed 25 mph    
Visibility 8 miles    
Events Rain    
T = Trace of Precipitation, MM = Missing Value Source: NWS Daily Summary

Daily Weather History Graph

Daily Weather History Graph

Search for Another Location

Airport:

Trip Planner

Search our weather history database for the weather conditions in past years. The results will help you decide how hot, cold, wet, or windy it might be!

Date:

Astronomy

Jul. 14, 2013 Rise Set
Actual Time 5:54 AM CDT 9:26 PM CDT
Civil Twilight 5:16 AM CDT 10:04 PM CDT
Nautical Twilight 4:25 AM CDT 10:54 PM CDT
Astronomical Twilight 3:18 AM CDT 12:01 AM CDT
Moon 12:41 PM CDT (7/14) No Moon Set
Length of Visible Light 16h 47m
Length of Day
15h 31m
Waxing Crescent, 35% of the Moon is Illuminated
Jul 14
Waxing Crescent
Jul 15
First Quarter
Jul 22
Full
Jul 29
Last Quarter
Aug 6
New

Hourly Weather History & Observations

Time (CDT) Temp. Dew Point Humidity Pressure Visibility Wind Dir Wind Speed Gust Speed Precip Events Conditions
12:56 AM 73.9 °F 73.0 °F 97% 29.96 in 5.0 mi ESE 5.8 mph - N/A   Partly Cloudy
1:56 AM 73.9 °F 72.0 °F 93% 29.95 in 5.0 mi ESE 5.8 mph - N/A   Clear
2:56 AM 73.0 °F 72.0 °F 96% 29.97 in 5.0 mi SSE 4.6 mph - N/A   Clear
3:56 AM 73.0 °F 72.0 °F 96% 29.99 in 5.0 mi Calm Calm - 0.00 in Rain Light Rain
4:05 AM 73.4 °F 71.6 °F 94% 30.01 in 5.0 mi Calm Calm - 0.00 in Rain Light Rain
4:56 AM 72.0 °F 71.1 °F 97% 29.97 in 2.5 mi Calm Calm - 0.01 in Rain Light Rain
5:23 AM 71.6 °F 71.6 °F 100% 30.00 in 3.0 mi Calm Calm - 0.01 in Rain Light Rain
5:47 AM 71.6 °F 71.6 °F 100% 30.01 in 2.5 mi NW 4.6 mph - 0.02 in Rain Light Rain
5:53 AM 71.6 °F 71.6 °F 100% 30.01 in 3.0 mi NW 5.8 mph - 0.02 in   Mostly Cloudy
5:56 AM 73.0 °F 72.0 °F 96% 29.98 in 3.0 mi NW 5.8 mph - 0.02 in   Mostly Cloudy
6:56 AM 69.1 °F 66.9 °F 93% 30.02 in 10.0 mi NNW 9.2 mph - N/A   Overcast
7:10 AM 69.8 °F 66.2 °F 88% 30.05 in 10.0 mi NNW 12.7 mph - N/A   Overcast
7:56 AM 68.0 °F 66.0 °F 93% 30.06 in 10.0 mi North 12.7 mph - N/A   Overcast
8:31 AM 64.4 °F 64.4 °F 100% 30.09 in 2.5 mi North 15.0 mph 21.9 mph N/A   Overcast
8:38 AM 64.4 °F 64.4 °F 100% 30.10 in 5.0 mi North 17.3 mph - N/A   Overcast
8:56 AM 66.0 °F 64.0 °F 93% 30.09 in 10.0 mi North 16.1 mph 21.9 mph N/A   Overcast
9:56 AM 66.9 °F 64.0 °F 90% 30.11 in 10.0 mi NNE 16.1 mph 21.9 mph N/A   Overcast
10:28 AM 68.0 °F 62.6 °F 83% 30.14 in 10.0 mi North 13.8 mph 20.7 mph N/A   Overcast
10:41 AM 69.8 °F 62.6 °F 78% 30.14 in 10.0 mi North 13.8 mph - N/A   Overcast
10:56 AM 68.0 °F 60.1 °F 76% 30.14 in 10.0 mi NE 13.8 mph 20.7 mph N/A   Overcast
11:56 AM 69.1 °F 60.1 °F 73% 30.14 in 10.0 mi NE 13.8 mph - N/A   Overcast
12:54 PM 69.8 °F 60.8 °F 73% 30.15 in 10.0 mi NNE 10.4 mph - N/A   Overcast
12:56 PM 70.0 °F 60.1 °F 71% 30.14 in 10.0 mi North 11.5 mph - N/A   Overcast
1:56 PM 73.0 °F 59.0 °F 61% 30.13 in 10.0 mi NNE 13.8 mph - N/A   Scattered Clouds
2:56 PM 75.0 °F 61.0 °F 62% 30.14 in 10.0 mi NNE 10.4 mph - N/A   Mostly Cloudy
3:56 PM 75.9 °F 61.0 °F 60% 30.14 in 10.0 mi NE 8.1 mph - N/A   Overcast
4:56 PM 75.0 °F 61.0 °F 62% 30.15 in 10.0 mi ENE 6.9 mph - N/A   Overcast
5:56 PM 75.9 °F 60.1 °F 58% 30.15 in 10.0 mi NE 9.2 mph - N/A   Overcast
6:56 PM 75.0 °F 59.0 °F 57% 30.17 in 10.0 mi NE 6.9 mph - N/A   Overcast
7:56 PM 73.9 °F 61.0 °F 64% 30.16 in 10.0 mi ENE 5.8 mph - N/A   Overcast
8:56 PM 73.0 °F 62.1 °F 68% 30.17 in 10.0 mi NE 4.6 mph - N/A   Overcast
9:56 PM 70.0 °F 60.1 °F 71% 30.17 in 10.0 mi East 6.9 mph - N/A   Partly Cloudy
10:56 PM 69.1 °F 60.1 °F 73% 30.18 in 10.0 mi East 4.6 mph - N/A   Scattered Clouds
11:56 PM 70.0 °F 61.0 °F 73% 30.17 in 10.0 mi East 5.8 mph - N/A   Overcast